Location: Bremen
(53.0793°N, 8.8017°E)
Time: 11:36:02
(UTC+02:00)

Transit 2A Rocket - Pass Details

Date: 26 June 2024
Orbit: 582 x 910 km, 66.7° (Epoch: 19 July)

Event Time Altitude Azimuth Distance (km) Brightness Sun altitude
Rises 23:34:33 0° 272° (W) 3,280 8.7 -9.7°
Reaches altitude 10° 23:37:17 10° 285° (WNW) 2,408 8.2 -9.9°
Maximum altitude 23:41:57 26° 341° (NNW) 1,626 7.7 -10.2°
Drops below altitude 10° 23:46:52 10° 37° (NE) 2,559 8.1 -10.5°
Sets 23:49:53 0° 50° (NE) 3,529 8.7 -10.7°
